{"data":{"norad_id":43562,"epoch":"2026-09-19T10:40:44.016960Z","epoch_age_seconds":113050,"freshness":"FRESH","line1":"1 43562U 18059A   26262.44495390 -.00000284  00000+0  00000+0 0  9992","line2":"2 43562   0.0090 156.2512 0002376  19.8956 279.3944  1.00273886 30083","mean_motion":1.00273886,"eccentricity":0.0002376,"inclination_deg":0.009,"raan_deg":156.2512,"arg_perigee_deg":19.8956,"mean_anomaly_deg":279.3944,"bstar":0,"rev_number":3008,"period_min":1436.0668140457,"perigee_km":35775.987784533,"apogee_km":35796.024185279,"semimajor_km":42164.142984906,"source":"CELESTRAK","updated_at":"2026-09-20T09:00:35.261642Z"}}